Карточка аэропорта UAAH

Внимание!
Информация на этой странице в стадии наполнения.
Если вы не увидели какой-то информации, или заметили неточность - пожалуйста сообщите нам!
Спасибо!
Команда RU-STAFF
Название аэропортаБалхаш
Название аэропорта (англ.)Balkhash
Превышение1446 ft. (440.7 m.)
Координаты46°53.424', 74°59.928'
Высота перехода900
Эшелон переходаFL60
Коды ответчика3501-3517, 3401-3427
Зона ОрВДАлматы РПИ (UAAA)
Данные METARUAAH 241230Z 08006MPS CAVOK 14/M06 Q1026 R05/0///60 NOSIG RMK QFE732/0976
Проноз погоды (TAF)UAAH 111100Z 1109/1218 CNL
NOTAMshow/hide NOTAM
AWOS   TABLE

Информация о ВПП


Диспетчерские позиции




Спутниковое изображение